Location: Mascot Post Office (historical)
(40.2645°N, 99.5462°W)
Time: 02:41:17
(UTC+00:00)

Cosmos 1733 Rocket - Pass Details

Date: 14 July 2020
Orbit: 604 x 627 km, 82.5° (Epoch: 14 August)

Event Time Altitude Azimuth Distance (km) Brightness Sun altitude
Exits shadow 09:35:03 29° 244° (WSW) 1,112 3.8 -16.5°
Maximum altitude 09:36:24 37° 282° (WNW) 951 3.8 -16.3°
Drops below altitude 10° 09:40:25 10° 351° (N) 1,960 6.2 -15.8°
Sets 09:42:47 0° 360° (N) 2,869 7.2 -15.5°
